User: anonymous   Login
Location: Roanoke
(37.2710°N, 79.9420°W)
Time: 07:54:18
(UTC-04:00)
Language:

FENGYUN 3A - Orbit

View from above orbital plane
View from above orbital plane
View from above satellite
View from above satellite

Ground track
Ground track

The orbit data is extracted from the following two-line orbital elements,

1 32958U 08026A   15118.06583141  .00000128  00000-0  80638-4 0  9997
2 32958 098.5074 170.5358 0010361 028.8105 331.3651 14.19549326358514
Epoch (UTC): 28 April 2015 01:34:47
Eccentricity: 0.0010361
inclination: 98.5074°
perigee height: 819 km
apogee height: 834 km
right ascension of ascending node: 170.5358°
argument of perigee: 28.8105°
revolutions per day: 14.19549326
mean anomaly at epoch: 331.3651°
orbit number at epoch: 35851

The dashed part of the orbit path shows where the satellite is in the earth's shadow,  

DLR